Location: Argonnex
(45.9500°N, 6.1333°E)
Time: 09:43:33
(UTC+00:00)

CZ-6A DEB - Pass Details

Date: 24 February 2024
Orbit: 827 x 907 km, 98.8° (Epoch: 12 April)

Event Time Altitude Azimuth Distance (km) Brightness Sun altitude
Rises 04:38:49 0° 24° (NNE) 3,451 ? -19.1°
Reaches altitude 10° 04:41:37 10° 37° (NE) 2,495 ? -18.6°
Maximum altitude 04:46:14 27° 94° (E) 1,578 ? -17.8°
Drops below altitude 10° 04:50:46 10° 151° (SSE) 2,443 ? -17.0°
Sets 04:53:27 0° 163° (SSE) 3,364 ? -16.5°
